Tracking 35274 objects as of 11-Sep-2026
HD Live streaming from Space Station
objects crossing your sky now

STARLINK-1905


STARLINK-1905 is no longer on orbit
STARLINK-1905 is classified as:


NORAD ID: 46746
Int'l Code: 2020-074H
Launch date: October 24, 2020
Source: United States (US)
Launch site: AIR FORCE EASTERN TEST RANGE (AFETR)
Decay date: 2026-07-06
Your satellite tracking list
Your tracking list is empty




NASA's NSSDC Master Catalog

Two Line Element Set (TLE):
1 46746U 20074H   26186.91103163  .10668105  12438-4  32174-3 0  9996
2 46746  53.0199  49.8931 0010173 255.1698 104.8223 16.44282955315902
Source of the keplerian elements: AFSPC